Showing default

GLOBALSTAR M098, 100325

Orbit data source: Space-Track

GLOBALSTAR M098, 100325 is a payload satellite owned by Globalstar (US) in LEO that was launched on Sun, 16 Aug 2026 UTC launched from the Air Force Eastern Test Range (AFETR). Payload-class satellites include a variety of spacecraft equipped with specific instruments for various scientific and technological missions. These include communications satellites like Starlink; space stations such as the ISS; scientific satellites like the Hubble; Earth observation satellites from companies like Planet Labs, Umbra, and HawkEye 360; GPS; miniature CubeSats for education and research; and military/defense satellites.

Loading next visibility...
Identifier
100325, 2026-185A
Orbit
LEO
Country
Flag of USUS
Related business
Manufacturer
MDARM/RLABLB
Mission
Operational spacecraft
Bus & Motor
C-3, AOCS
Mass
850 kg wet, ~800 kg dry
Launch date (UTC)
2026-08-16 (3 weeks ago)
Launch vehicle
Unknown
Launch site
Air Force Eastern Test Range (AFETR)
Object type
Payload
Rocket body
Debris
Shape & HBR
TRAP CYL + 2 PAN, 7.0 m
Radar Cross Section
Large (>1 m²)

Expand to show TLE details & history
Last TLE update: 17 hours ago

TLE from 17 hours ago
0 GLOBALSTAR M098
1 A0325U 26185A   26251.12280218  .00000241  00000-0  82854-4 0  9990
2 A0325  51.9957 138.8108 0009719 307.2770  52.7300 14.63728195  3386
Epoch: 2026-09-08T02:56Z
TLE epoch observation values (Epoch: 2026-09-08T02:56:50.108Z)
Latitude
Longitude
107.40828°
Altitude
677.762 km
Speed
7.521 km/s
True Right ascension
09h 15m 14s
True Declination
0° 00' 00"
Sunlit
Object was in daylight at epoch
Visualization orbit readout
Latitude
Unknown
Longitude
Unknown
Altitude
Unknown
Speed
Unknown
Apparent Right ascension
Unknown
Apparent Declination
Unknown
Sunlit
N/A
Visualization observer readout
Local Sidereal Time
11:38:16
Azimuth
Unknown
Elevation
Unknown
Doppler factor
Unknown
Orbital elements
Apogee altitude
688.456 km
Perigee altitude
674.733 km
Semi-major axis
7,059.731 km
Eccentricity
0.00097
Inclination
51.9957°
RAAN
138.8108°
Arg. of periapsis
307.277°
True anomaly
52.81869°
Mean anomaly
52.73°
Eccentric anomaly
52.77434°
Mean motion
3.65899 °/min
Orbital period
98.39 mins
BSTAR
0.000082854
Loading maneuver chart data...
Computing Atmospheric mass density...
Loading historical data...
Loading historical data...
Loading historical data...
Loading historical data...
Loading historical data...
Loading historical data...
Loading historical data...

Documentation

Showing up to 5 results
|